Hourly Data Report for July 30, 2021

CAMPBELL RIVER A
BRITISH COLUMBIA
Current Station Operator: NAVCAN

49°57'07.000" N
125°16'23.000" W
108.80 m
1021270
YBL

Download Data

Hourly Data (July 2021)
Hourly Data Report for July 30, 2021
TIME
LST
Temp Definition
°C
Dew Point Definition
°C
Rel Hum Definition
%
Precip. Amount Definition
mm

Wind Dir Definition
10's deg

Wind Spd Definition
km/h
Visibility Definition
km
Stn Press Definition
kPa
Hmdx Definition


Wind Chill Definition


Weather Definition


00:00 19.9 11.6 58 LegendMM 30 13 LegendMM 100.31     LegendNANA
01:00 19.6 12.7 64 LegendMM 30 16 LegendMM 100.33     LegendNANA
02:00 18.6 13.0 70 LegendMM 31 9 LegendMM 100.36     LegendNANA
03:00 17.6 13.8 78 LegendMM 29 13 LegendMM 100.37     LegendNANA
04:00 15.6 12.8 83 LegendMM 29 8 LegendMM 100.39     LegendNANA
05:00 14.7 12.9 89 LegendMM 30 4 LegendMM 100.41     LegendNANA
06:00 17.2 14.2 82 LegendMM 32 5 LegendMM 100.45     LegendNANA
07:00 20.6 14.3 67 LegendMM 31 10 LegendMM 100.46     LegendNANA
08:00 23.2 13.8 55 LegendMM 33 7 LegendMM 100.47 26   LegendNANA
09:00 24.9 14.8 53 LegendMM 11 6 LegendMM 100.46 29   LegendNANA
10:00 26.6 13.9 45 LegendMM 7 12 LegendMM 100.45 30   LegendNANA
11:00 28.0 13.0 39 LegendMM 12 9 LegendMM 100.43 31   LegendNANA
12:00 29.6 13.0 35 LegendMM 10 10 LegendMM 100.41 32   LegendNANA
13:00 30.6 12.2 32 LegendMM 9 8 LegendMM 100.36 33   LegendNANA
14:00 32.3 10.4 25 LegendMM 11 8 LegendMM 100.32 34   LegendNANA
15:00 33.0 8.6 22 LegendMM 6 11 LegendMM 100.27 34   LegendNANA
16:00 33.8 8.1 20 LegendMM 14 9 LegendMM 100.24 34   LegendNANA
17:00 34.0 6.8 18 LegendMM 6 5 LegendMM 100.19 34   LegendNANA
18:00 32.7 7.7 21 LegendMM 6 9 LegendMM 100.15 33   LegendNANA
19:00 27.7 10.2 33 LegendMM 12 2 LegendMM 100.14 29   LegendNANA
20:00 23.5 12.8 50 LegendMM 26 3 LegendMM 100.16 26   LegendNANA
21:00 20.6 13.1 62 LegendMM 32 5 LegendMM 100.21     LegendNANA
22:00 17.9 12.6 71 LegendMM 30 8 LegendMM 100.24     LegendNANA
23:00 20.9 11.4 54 LegendMM 30 12 LegendMM 100.24     LegendNANA

Notes on Data Quality.

Legend

  • E = Estimated
  • M = Missing
  • NA = Not Available*
  • [empty] = Indicates an unobserved value
Date modified: